Stündliche Wetter Cegielsko

Heute, 25 Oktober, Sonntag

Zeit Temperatur Niederschläge Wind Luftdruck Luftfeuchtigkeit
00:00 +10°C° 0 mm 2 m/S 754 mmHg 91%
01:00 +10°C° 0 mm 2 m/S 754 mmHg 91%
02:00 +9°C° 0 mm 2 m/S 754 mmHg 91%
03:00 +9°C° 0 mm 2 m/S 753 mmHg 91%
04:00 +9°C° 0 mm 2 m/S 753 mmHg 91%
05:00 +9°C° 0 mm 2 m/S 753 mmHg 92%
06:00 +9°C° 0 mm 2 m/S 753 mmHg 92%
07:00 +9°C° 0 mm 2 m/S 753 mmHg 93%
08:00 +10°C° 0 mm 3 m/S 753 mmHg 86%
09:00 +12°C° 0 mm 3 m/S 753 mmHg 80%
10:00 +13°C° 0 mm 4 m/S 752 mmHg 74%
11:00 +14°C° 0 mm 4 m/S 752 mmHg 69%
12:00 +15°C° 0 mm 4 m/S 752 mmHg 65%
13:00 +18°C° 0 mm 3 m/S 751 mmHg 60%
14:00 +17°C° 0 mm 3 m/S 751 mmHg 63%
15:00 +16°C° 0 mm 3 m/S 750 mmHg 67%
16:00 +16°C° 0 mm 3 m/S 750 mmHg 71%
17:00 +14°C° 0 mm 3 m/S 750 mmHg 74%
18:00 +13°C° 0 mm 4 m/S 750 mmHg 78%
19:00 +12°C° 0 mm 4 m/S 750 mmHg 82%
20:00 +12°C° 0 mm 4 m/S 750 mmHg 84%
21:00 +12°C° 0 mm 3 m/S 749 mmHg 86%
22:00 +11°C° 0 mm 3 m/S 749 mmHg 88%
23:00 +11°C° 0 mm 3 m/S 749 mmHg 89%

Morgen, 26 Oktober, Montag

Zeit Temperatur Niederschläge Wind Luftdruck Luftfeuchtigkeit
00:00 +10°C° 0 mm 3 m/S 749 mmHg 90%
01:00 +10°C° 0 mm 2 m/S 749 mmHg 91%
02:00 +10°C° 0 mm 2 m/S 748 mmHg 91%
03:00 +10°C° 0 mm 2 m/S 748 mmHg 91%
04:00 +9°C° 0 mm 2 m/S 748 mmHg 92%
05:00 +9°C° 0 mm 2 m/S 748 mmHg 92%
06:00 +9°C° 0 mm 2 m/S 748 mmHg 93%
07:00 +9°C° 0 mm 2 m/S 747 mmHg 93%
08:00 +11°C° 0 mm 1 m/S 747 mmHg 88%
09:00 +13°C° 0 mm 1 m/S 747 mmHg 82%
10:00 +14°C° 0 mm 1 m/S 747 mmHg 76%
11:00 +15°C° 0 mm 1 m/S 747 mmHg 74%
12:00 +16°C° 0 mm 2 m/S 747 mmHg 71%
13:00 +16°C° 0 mm 2 m/S 747 mmHg 69%
14:00 +15°C° 0.1 mm 2 m/S 747 mmHg 73%
15:00 +15°C° 0.1 mm 2 m/S 747 mmHg 78%
16:00 +14°C° 0.1 mm 2 m/S 747 mmHg 82%
17:00 +14°C° 0.1 mm 2 m/S 747 mmHg 85%
18:00 +13°C° 0.1 mm 2 m/S 747 mmHg 87%
19:00 +12°C° 0.1 mm 3 m/S 748 mmHg 89%
20:00 +11°C° 0 mm 3 m/S 748 mmHg 90%
21:00 +12°C° 0 mm 2 m/S 748 mmHg 91%
22:00 +10°C° 0 mm 2 m/S 748 mmHg 91%
23:00 +10°C° 0 mm 2 m/S 748 mmHg 91%

übermorgen, 27 Oktober, Dienstag

Zeit Temperatur Niederschläge Wind Luftdruck Luftfeuchtigkeit
00:00 +10°C° 0 mm 2 m/S 748 mmHg 91%
01:00 +11°C° 0 mm 1 m/S 749 mmHg 92%
02:00 +11°C° 0 mm 1 m/S 749 mmHg 92%
03:00 +11°C° 0 mm 1 m/S 749 mmHg 91%
04:00 +11°C° 0 mm 1 m/S 749 mmHg 91%
05:00 +11°C° 0.3 mm 1 m/S 749 mmHg 92%
06:00 +11°C° 0.3 mm 1 m/S 749 mmHg 92%
07:00 +10°C° 0.3 mm 1 m/S 749 mmHg 93%
08:00 +10°C° 0.2 mm 1 m/S 749 mmHg 93%
09:00 +11°C° 0.2 mm 1 m/S 749 mmHg 92%
10:00 +11°C° 0.2 mm 1 m/S 749 mmHg 92%
11:00 +11°C° 0.3 mm 1 m/S 749 mmHg 92%
12:00 +11°C° 0.3 mm 1 m/S 749 mmHg 92%
13:00 +11°C° 0.3 mm 1 m/S 749 mmHg 92%
14:00 +11°C° 0.5 mm 1 m/S 749 mmHg 93%
15:00 +10°C° 0.5 mm 1 m/S 750 mmHg 93%
16:00 +9°C° 0.5 mm 2 m/S 750 mmHg 94%
17:00 +9°C° 0.1 mm 2 m/S 750 mmHg 93%
18:00 +9°C° 0.1 mm 2 m/S 750 mmHg 92%
19:00 +9°C° 0.1 mm 2 m/S 751 mmHg 92%
20:00 +9°C° 0 mm 2 m/S 751 mmHg 91%
21:00 +8°C° 0 mm 2 m/S 751 mmHg 91%
22:00 +8°C° 0 mm 3 m/S 751 mmHg 91%
23:00 +8°C° 0 mm 3 m/S 752 mmHg 90%

28 Oktober, Mittwoch

Zeit Temperatur Niederschläge Wind Luftdruck Luftfeuchtigkeit
00:00 +7°C° 0 mm 3 m/S 752 mmHg 89%
01:00 +7°C° 0 mm 3 m/S 752 mmHg 87%
02:00 +7°C° 0 mm 3 m/S 752 mmHg 88%
03:00 +7°C° 0 mm 3 m/S 752 mmHg 88%
04:00 +7°C° 0 mm 3 m/S 752 mmHg 89%
05:00 +7°C° 0 mm 3 m/S 752 mmHg 88%
06:00 +7°C° 0 mm 3 m/S 752 mmHg 87%
07:00 +6°C° 0 mm 4 m/S 752 mmHg 87%
08:00 +7°C° 0 mm 4 m/S 752 mmHg 80%
09:00 +10°C° 0 mm 4 m/S 752 mmHg 73%
10:00 +10°C° 0 mm 5 m/S 752 mmHg 66%
11:00 +12°C° 0 mm 5 m/S 752 mmHg 64%
12:00 +12°C° 0 mm 4 m/S 752 mmHg 62%
13:00 +13°C° 0 mm 4 m/S 752 mmHg 60%
14:00 +12°C° 0 mm 4 m/S 751 mmHg 62%
15:00 +12°C° 0 mm 3 m/S 751 mmHg 64%
16:00 +11°C° 0 mm 3 m/S 751 mmHg 66%
17:00 +11°C° 0 mm 3 m/S 752 mmHg 69%
18:00 +10°C° 0 mm 3 m/S 752 mmHg 72%
19:00 +9°C° 0 mm 3 m/S 752 mmHg 75%
20:00 +9°C° 0 mm 3 m/S 752 mmHg 76%
21:00 +8°C° 0 mm 3 m/S 752 mmHg 78%
22:00 +8°C° 0 mm 3 m/S 752 mmHg 79%
23:00 +8°C° 0 mm 3 m/S 752 mmHg 79%

29 Oktober, Donnerstag

Zeit Temperatur Niederschläge Wind Luftdruck Luftfeuchtigkeit
00:00 +8°C° 0 mm 3 m/S 752 mmHg 79%
01:00 +8°C° 0 mm 4 m/S 752 mmHg 79%
02:00 +8°C° 0 mm 4 m/S 752 mmHg 79%
03:00 +8°C° 0 mm 4 m/S 752 mmHg 80%
04:00 +8°C° 0 mm 4 m/S 752 mmHg 80%
05:00 +8°C° 0 mm 4 m/S 752 mmHg 79%
06:00 +10°C° 0 mm 4 m/S 752 mmHg 79%
07:00 +10°C° 0 mm 4 m/S 752 mmHg 78%
08:00 +10°C° 0.1 mm 5 m/S 752 mmHg 76%
09:00 +10°C° 0.1 mm 5 m/S 752 mmHg 74%
10:00 +11°C° 0.1 mm 6 m/S 753 mmHg 73%
11:00 +11°C° 0.1 mm 6 m/S 753 mmHg 68%
12:00 +13°C° 0.1 mm 6 m/S 753 mmHg 64%
13:00 +14°C° 0.1 mm 7 m/S 753 mmHg 60%
14:00 +13°C° 0 mm 6 m/S 754 mmHg 63%
15:00 +12°C° 0 mm 5 m/S 754 mmHg 66%
16:00 +12°C° 0 mm 4 m/S 754 mmHg 70%
17:00 +11°C° 0 mm 3 m/S 755 mmHg 72%
18:00 +10°C° 0 mm 3 m/S 755 mmHg 75%
19:00 +9°C° 0 mm 3 m/S 755 mmHg 78%
20:00 +9°C° 0 mm 3 m/S 756 mmHg 79%
21:00 +9°C° 0 mm 3 m/S 756 mmHg 80%
22:00 +8°C° 0 mm 4 m/S 756 mmHg 81%
23:00 +8°C° 0 mm 4 m/S 756 mmHg 81%

30 Oktober, Freitag

Zeit Temperatur Niederschläge Wind Luftdruck Luftfeuchtigkeit
00:00 +8°C° 0 mm 4 m/S 756 mmHg 80%
01:00 +8°C° 0 mm 4 m/S 756 mmHg 80%
02:00 +8°C° 0 mm 4 m/S 756 mmHg 79%
03:00 +9°C° 0 mm 5 m/S 755 mmHg 78%
04:00 +9°C° 0 mm 5 m/S 755 mmHg 77%
05:00 +9°C° 0.1 mm 5 m/S 755 mmHg 79%
06:00 +10°C° 0.1 mm 5 m/S 755 mmHg 80%
07:00 +10°C° 0.1 mm 5 m/S 756 mmHg 81%
08:00 +12°C° 0 mm 5 m/S 756 mmHg 79%
09:00 +13°C° 0 mm 6 m/S 756 mmHg 76%
10:00 +14°C° 0 mm 6 m/S 756 mmHg 74%
11:00 +14°C° 0 mm 6 m/S 756 mmHg 72%
12:00 +15°C° 0 mm 6 m/S 756 mmHg 69%
13:00 +15°C° 0 mm 6 m/S 756 mmHg 67%
14:00 +15°C° 0 mm 5 m/S 756 mmHg 69%
15:00 +14°C° 0 mm 4 m/S 756 mmHg 72%
16:00 +14°C° 0 mm 3 m/S 756 mmHg 74%
17:00 +13°C° 0 mm 3 m/S 757 mmHg 77%
18:00 +13°C° 0 mm 3 m/S 757 mmHg 80%
19:00 +12°C° 0 mm 3 m/S 757 mmHg 83%
20:00 +12°C° 0 mm 3 m/S 757 mmHg 84%
21:00 +11°C° 0 mm 3 m/S 757 mmHg 86%
22:00 +11°C° 0 mm 3 m/S 757 mmHg 88%
23:00 +10°C° 0 mm 3 m/S 757 mmHg 88%
Mehr zeigen